Change the Weather History Date:

Sunday, September 22, 2013

  Actual Average Record
Temperature  
Mean Temperature 79 °F -  
Max Temperature 89 °F 89 °F 95 °F (2008)
Min Temperature 69 °F 73 °F 64 °F (1987)
Cooling Degree Days 14    
Growing Degree Days 29 (Base 50)    
Moisture  
Dew Point 72 °F    
Average Humidity 82    
Maximum Humidity 100    
Minimum Humidity 55    
Precipitation  
Precipitation 0.00 in - - ()
Sea Level Pressure  
Sea Level Pressure 29.83 in    
Wind  
Wind Speed 3 mph (SW)    
Max Wind Speed 13 mph    
Max Gust Speed 18 mph    
Visibility 10 miles    
Events Rain    
Averages and records for this station are not official NWS values.
T = Trace of Precipitation, MM = Missing Value Source: NWS Daily Summary

Daily Weather History Graph

Daily Weather History Graph

Search for Another Location

Airport or City:

Trip Planner

Search our weather history database for the weather conditions in past years. The results will help you decide how hot, cold, wet, or windy it might be!

Date:

Astronomy

Sep. 22, 2013 Rise Set
Actual Time 7:12 AM EDT 7:19 PM EDT
Civil Twilight 6:48 AM EDT 7:42 PM EDT
Nautical Twilight 6:21 AM EDT 8:09 PM EDT
Astronomical Twilight 5:54 AM EDT 8:37 PM EDT
Moon 9:30 PM EDT (9/22) 10:10 AM EDT (9/22)
Length of Visible Light 12h 54m
Length of Day
12h 07m
Waning Gibbous, 89% of the Moon is Illuminated
Sep 22
Waning Gibbous
Sep 26
Last Quarter
Oct 4
New
Oct 11
First Quarter
Oct 18
Full

Hourly Weather History & Observations

Time (EDT) Temp. Heat Index Dew Point Humidity Pressure Visibility Wind Dir Wind Speed Gust Speed Precip Events Conditions
12:15 AM 73.4 °F - 69.8 °F 88% 29.85 in 10.0 mi SE 3.5 mph - N/A   Clear
12:35 AM 71.6 °F - 69.8 °F 94% 29.84 in 10.0 mi Calm Calm - N/A   Clear
12:55 AM 71.6 °F - 69.8 °F 94% 29.83 in 10.0 mi Calm Calm - N/A   Clear
1:15 AM 71.6 °F - 69.8 °F 94% 29.82 in 10.0 mi ESE 4.6 mph - N/A   Clear
1:35 AM 71.6 °F - 69.8 °F 94% 29.82 in 10.0 mi Calm Calm - N/A   Clear
1:55 AM 71.6 °F - 69.8 °F 94% 29.83 in 10.0 mi Calm Calm - N/A   Clear
2:15 AM 71.6 °F - 69.8 °F 94% 29.82 in 10.0 mi SE 3.5 mph - N/A   Clear
2:35 AM 71.6 °F - 69.8 °F 94% 29.82 in 10.0 mi Calm Calm - N/A   Clear
2:55 AM 71.6 °F - 69.8 °F 94% 29.82 in 10.0 mi Calm Calm - N/A   Clear
3:15 AM 69.8 °F - 69.8 °F 100% 29.82 in 10.0 mi Calm Calm - N/A   Scattered Clouds
3:35 AM 69.8 °F - 69.8 °F 100% 29.81 in 10.0 mi Calm Calm - N/A   Scattered Clouds
3:55 AM 71.6 °F - 69.8 °F 94% 29.81 in 10.0 mi Calm Calm - N/A   Scattered Clouds
4:15 AM 69.8 °F - 69.8 °F 100% 29.81 in 10.0 mi Calm Calm - N/A   Scattered Clouds
4:35 AM 69.8 °F - 69.8 °F 100% 29.81 in 10.0 mi Calm Calm - N/A   Scattered Clouds
4:55 AM 69.8 °F - 69.8 °F 100% 29.81 in 10.0 mi Calm Calm - N/A   Clear
5:15 AM 71.6 °F - 71.6 °F 100% 29.80 in 10.0 mi Calm Calm - N/A   Clear
5:35 AM 69.8 °F - 69.8 °F 100% 29.80 in 10.0 mi Calm Calm - N/A   Clear
5:55 AM 69.8 °F - 69.8 °F 100% 29.80 in 10.0 mi Calm Calm - N/A   Clear
6:15 AM 69.8 °F - 69.8 °F 100% 29.81 in 7.0 mi Calm Calm - N/A   Scattered Clouds
6:35 AM 69.8 °F - 69.8 °F 100% 29.81 in 7.0 mi Calm Calm - N/A   Clear
6:55 AM 69.8 °F - 69.8 °F 100% 29.81 in 10.0 mi Calm Calm - N/A   Clear
7:15 AM 69.8 °F - 69.8 °F 100% 29.81 in 1.0 mi Calm Calm - N/A   Mist
7:35 AM 69.8 °F - 69.8 °F 100% 29.82 in 5.0 mi Calm Calm - N/A   Clear
7:55 AM 71.6 °F - 71.6 °F 100% 29.83 in 4.0 mi Calm Calm - N/A   Clear
8:15 AM 73.4 °F - 73.4 °F 100% 29.83 in 7.0 mi SSW 3.5 mph - N/A   Clear
8:35 AM 77.0 °F - 75.2 °F 94% 29.83 in 10.0 mi SSW 4.6 mph - N/A   Clear
8:55 AM 77.0 °F - 75.2 °F 94% 29.83 in 10.0 mi SSW 3.5 mph - N/A   Clear
9:15 AM 78.8 °F - 75.2 °F 89% 29.84 in 10.0 mi SW 4.6 mph - N/A   Clear
9:35 AM 78.8 °F - 75.2 °F 89% 29.84 in 10.0 mi SSW 5.8 mph - N/A   Clear
9:55 AM 78.8 °F - 73.4 °F 83% 29.85 in 10.0 mi SSW 5.8 mph - N/A   Clear
10:15 AM 80.6 °F 85.4 °F 73.4 °F 79% 29.86 in 10.0 mi SSW 9.2 mph - N/A   Clear
10:35 AM 80.6 °F 84.6 °F 71.6 °F 74% 29.85 in 10.0 mi SW 6.9 mph - N/A   Clear
10:55 AM 80.6 °F 84.6 °F 71.6 °F 74% 29.86 in 10.0 mi SSW 9.2 mph - N/A   Clear
11:15 AM 82.4 °F 87.2 °F 71.6 °F 70% 29.86 in 10.0 mi SSW 9.2 mph - N/A   Clear
11:35 AM 82.4 °F 87.2 °F 71.6 °F 70% 29.86 in 10.0 mi SSW 11.5 mph - N/A   Clear
11:55 AM 84.2 °F 89.6 °F 71.6 °F 66% 29.86 in 10.0 mi SSW 10.4 mph - N/A   Clear
12:15 PM 86.0 °F 91.8 °F 71.6 °F 62% 29.85 in 10.0 mi SSW 10.4 mph - N/A   Scattered Clouds
12:35 PM 86.0 °F 91.8 °F 71.6 °F 62% 29.85 in 10.0 mi SSW 10.4 mph - N/A   Scattered Clouds
12:55 PM 86.0 °F 93.4 °F 73.4 °F 66% 29.84 in 10.0 mi South 8.1 mph - N/A   Scattered Clouds
1:15 PM 86.0 °F 93.4 °F 73.4 °F 66% 29.83 in 10.0 mi South 10.4 mph 16.1 mph N/A   Scattered Clouds
1:35 PM 86.0 °F 93.4 °F 73.4 °F 66% 29.83 in 10.0 mi SSW 9.2 mph - N/A   Scattered Clouds
1:55 PM 87.8 °F 95.6 °F 73.4 °F 62% 29.82 in 10.0 mi SW 11.5 mph 16.1 mph N/A   Scattered Clouds
2:15 PM 86.0 °F 93.4 °F 73.4 °F 66% 29.82 in 10.0 mi SSW 8.1 mph - N/A   Mostly Cloudy
2:35 PM 86.0 °F 91.8 °F 71.6 °F 62% 29.81 in 10.0 mi SW 10.4 mph - N/A   Scattered Clouds
2:55 PM 87.8 °F 93.8 °F 71.6 °F 58% 29.81 in 10.0 mi SSW 10.4 mph 16.1 mph N/A   Scattered Clouds
3:15 PM 87.8 °F 93.8 °F 71.6 °F 58% 29.80 in 10.0 mi SW 8.1 mph - N/A   Scattered Clouds
3:35 PM 89.6 °F 98.2 °F 73.4 °F 59% 29.79 in 10.0 mi SSW 9.2 mph 18.4 mph N/A   Scattered Clouds
3:55 PM 87.8 °F 95.6 °F 73.4 °F 62% 29.78 in 10.0 mi SSW 10.4 mph - N/A   Mostly Cloudy
4:15 PM 89.6 °F 96.2 °F 71.6 °F 55% 29.78 in 10.0 mi WSW 12.7 mph 16.1 mph N/A   Scattered Clouds
4:35 PM 87.8 °F 93.8 °F 71.6 °F 58% 29.78 in 10.0 mi WSW 5.8 mph - N/A   Scattered Clouds
4:55 PM 87.8 °F 93.8 °F 71.6 °F 58% 29.78 in 10.0 mi WSW 8.1 mph - N/A   Scattered Clouds
5:15 PM 87.8 °F 93.8 °F 71.6 °F 58% 29.78 in 10.0 mi West 6.9 mph - N/A   Scattered Clouds
5:35 PM 87.8 °F 93.8 °F 71.6 °F 58% 29.78 in 10.0 mi WSW 5.8 mph - N/A   Mostly Cloudy
5:55 PM 87.8 °F 93.8 °F 71.6 °F 58% 29.79 in 10.0 mi WSW 8.1 mph - N/A   Scattered Clouds
6:15 PM 87.8 °F 93.8 °F 71.6 °F 58% 29.80 in 10.0 mi WSW 9.2 mph - N/A   Scattered Clouds
6:35 PM 86.0 °F 91.8 °F 71.6 °F 62% 29.80 in 10.0 mi West 5.8 mph - N/A   Scattered Clouds
6:55 PM 86.0 °F 91.8 °F 71.6 °F 62% 29.81 in 10.0 mi West 4.6 mph - N/A   Scattered Clouds
7:15 PM 82.4 °F 87.2 °F 71.6 °F 70% 29.81 in 10.0 mi West 3.5 mph - N/A   Clear
7:35 PM 82.4 °F 87.2 °F 71.6 °F 70% 29.82 in 10.0 mi WNW 4.6 mph - N/A   Mostly Cloudy
7:55 PM 78.8 °F - 71.6 °F 78% 29.83 in 10.0 mi NNE 9.2 mph - N/A   Scattered Clouds
8:15 PM 77.0 °F - 71.6 °F 83% 29.83 in 10.0 mi NNE 3.5 mph - N/A   Clear
8:35 PM 77.0 °F - 71.6 °F 83% 29.84 in 10.0 mi NNE 3.5 mph - N/A   Clear
8:55 PM 75.2 °F - 71.6 °F 89% 29.85 in 10.0 mi Calm Calm - N/A   Clear
9:15 PM 75.2 °F - 71.6 °F 89% 29.86 in 10.0 mi Calm Calm - N/A   Clear
9:35 PM 75.2 °F - 71.6 °F 89% 29.86 in 10.0 mi Calm Calm - N/A   Clear
9:55 PM 75.2 °F - 71.6 °F 89% 29.86 in 10.0 mi Calm Calm - N/A Rain Light Rain
10:15 PM 73.4 °F - 71.6 °F 94% 29.87 in 10.0 mi Calm Calm - N/A   Clear
10:35 PM 73.4 °F - 71.6 °F 94% 29.87 in 10.0 mi Calm Calm - N/A   Clear
10:55 PM 73.4 °F - 71.6 °F 94% 29.88 in 10.0 mi Calm Calm - N/A   Clear
11:15 PM 73.4 °F - 71.6 °F 94% 29.89 in 10.0 mi Calm Calm - N/A   Clear
11:35 PM 73.4 °F - 71.6 °F 94% 29.89 in 10.0 mi Calm Calm - N/A   Clear
11:55 PM 73.4 °F - 71.6 °F 94% 29.89 in 10.0 mi Calm Calm - N/A   Clear